Torna al catalogo

BLUE RING PATHFINDER

AttivoScienzaHEO
NORAD 62720·PAYLOAD·🇺🇸 United States

Lanciato Jan 16, 2025 da Cape Canaveral Space Force Station

Loading…

Prossimi Passaggi (prossime 24 ore)

TLE

AggiornatoSource: Space-Track

Epoca: Sep 14, 2026, 14:43 UTC

1 62720U 25011A   26257.61359196 -.00000030  00000-0  00000-0 0  9992
2 62720  29.8434 116.5047 4883356 352.8385   2.2296  3.84308815 23314

Traccia BLUE RING PATHFINDER in tempo reale con AllMySat

Download on the App Store